GW1985 Weather Reports


Display with metric or nautical units.
time (UTC)temp
F
wind
direction
speed
MPH
gust
MPH
rain 1hr
in
rain 24hr
in
rain mn
in
humidity
%
barometer
mb
20260504050738 54 189 0.0 0.0 0.00 0.00 0.00 53 1003.0
20260504050235 54 189 0.0 0.0 0.00 0.00 0.00 53 1003.0
20260504045732 54 186 0.0 0.0 0.00 0.00 0.00 53 1003.1
20260504045227 54 181 0.0 0.0 0.00 0.00 0.00 54 1003.3
20260504044725 55 181 0.0 0.0 0.00 0.00 0.00 53 1003.2
20260504044222 55 183 0.0 0.0 0.00 0.00 0.00 52 1003.0
20260504043720 55 183 0.0 0.0 0.00 0.00 0.00 53 1003.2
20260504043216 55 184 0.0 0.0 0.00 0.00 0.00 53 1003.5
20260504042714 55 185 0.0 0.0 0.00 0.00 0.00 53 1003.6
20260504042210 55 183 0.0 0.0 0.00 0.00 0.00 53 1003.7
20260504041706 55 183 0.0 0.0 0.00 0.00 0.00 53 1003.8
20260504041202 55 183 0.0 0.0 0.00 0.00 0.00 53 1003.8
20260504040659 55 182 0.0 0.0 0.00 0.00 0.00 53 1003.9
20260504040156 55 183 0.0 0.0 0.00 0.00 0.00 54 1004.2
20260504035652 55 183 0.0 0.0 0.00 0.00 0.00 54 1004.3
20260504035150 56 183 0.0 0.0 0.00 0.00 0.00 51 1004.1
20260504034647 55 184 0.0 0.0 0.00 0.00 0.00 51 1004.5
20260504034144 55 197 0.0 0.0 0.00 0.00 0.00 53 1004.5
20260504033642 55 223 0.0 0.0 0.00 0.00 0.00 54 1004.7
20260504033139 54 224 0.0 0.0 0.00 0.00 0.00 51 1004.7
20260504032635 54 224 0.0 0.0 0.00 0.00 0.00 51 1005.0
20260504032133 54 224 0.0 0.0 0.00 0.00 0.00 52 1005.0
20260504031630 55 224 0.0 0.0 0.00 0.00 0.00 50 1004.9
20260504031126 55 224 0.0 0.0 0.00 0.00 0.00 50 1004.9
20260504030623 56 224 0.0 0.0 0.00 0.00 0.00 49 1005.1
20260504030120 57 224 0.0 0.0 0.00 0.00 0.00 47 1005.1
20260504025616 57 224 0.0 0.0 0.00 0.00 0.00 47 1005.1
20260504025113 57 224 0.0 0.0 0.00 0.00 0.00 46 1005.3
20260504024611 58 224 0.0 0.0 0.00 0.00 0.00 46 1005.3
20260504024107 58 224 0.0 0.0 0.00 0.00 0.00 45 1005.3
20260504023604 59 224 0.0 0.0 0.00 0.00 0.00 44 1005.3
20260504023059 60 224 0.0 0.0 0.00 0.00 0.00 42 1005.4
20260504022556 61 224 0.0 0.0 0.00 0.00 0.00 40 1005.2
20260504022052 61 224 0.0 0.0 0.00 0.00 0.00 40 1005.3
20260504021550 61 224 0.0 0.0 0.00 0.00 0.00 40 1005.3
20260504021046 62 224 0.0 0.0 0.00 0.00 0.00 40 1005.3
20260504020543 62 224 0.0 0.0 0.00 0.00 0.00 39 1005.4
20260504020040 62 225 0.0 0.0 0.00 0.00 0.00 39 1005.5
20260504015537 63 225 0.0 0.0 0.00 0.00 0.00 38 1005.3
20260504015032 63 220 0.0 0.0 0.00 0.00 0.00 38 1005.4
20260504014529 63 218 0.0 0.0 0.00 0.00 0.00 38 1005.6
20260504014026 63 226 0.0 0.0 0.00 0.00 0.00 38 1005.5
20260504013523 64 226 0.0 0.0 0.00 0.00 0.00 37 1005.5
20260504013020 64 226 0.0 0.0 0.00 0.00 0.00 36 1005.4
20260504012518 64 226 1.0 1.0 0.00 0.00 0.00 35 1005.4
20260504012016 65 207 2.0 2.0 0.00 0.00 0.00 35 1005.5
20260504011512 65 236 0.0 0.0 0.00 0.00 0.00 34 1005.6
20260504011008 66 224 1.0 2.0 0.00 0.00 0.00 34 1005.7
20260504010504 66 225 1.0 2.0 0.00 0.00 0.00 33 1005.6
20260504010000 66 206 0.0 0.0 0.00 0.00 0.00 33 1005.5
20260504005457 67 205 0.0 0.0 0.00 0.00 0.00 34 1005.6
20260504004954 67 237 0.0 0.0 0.00 0.00 0.00 32 1005.6
20260504004452 67 234 0.0 0.0 0.00 0.00 0.00 33 1005.7
20260504003949 67 219 0.0 0.0 0.00 0.00 0.00 33 1005.6
20260504003445 67 213 0.0 0.0 0.00 0.00 0.00 32 1005.7
20260504002942 67 259 0.0 0.0 0.00 0.00 0.00 32 1005.8
20260504002439 68 270 3.0 3.0 0.00 0.00 0.00 30 1005.7
20260504001936 68 225 2.0 2.0 0.00 0.00 0.00 30 1005.8
20260504001433 68 281 3.0 6.0 0.00 0.00 0.00 30 1006.0
20260504000930 68 268 3.0 5.0 0.00 0.00 0.00 31 1005.8
20260504000427 69 253 0.0 0.0 0.00 0.00 0.00 32 1005.6
20260503235924 69 225 3.0 3.0 0.00 0.00 0.00 30 1006.0
20260503235422 69 283 5.0 6.0 0.00 0.00 0.00 30 1005.9
20260503234919 69 264 5.0 7.0 0.00 0.00 0.00 29 1006.1
20260503234417 69 294 4.0 6.0 0.00 0.00 0.00 29 1006.0
20260503233915 69 239 5.0 6.0 0.00 0.00 0.00 29 1006.2
20260503233411 69 251 5.0 7.0 0.00 0.00 0.00 29 1006.0
20260503232908 69 280 4.0 5.0 0.00 0.00 0.00 29 1006.0
20260503232405 69 308 4.0 6.0 0.00 0.00 0.00 30 1005.9
20260503231902 70 274 6.0 8.0 0.00 0.00 0.00 29 1006.0
20260503231400 71 210 4.0 6.0 0.00 0.00 0.00 29 1006.1
20260503230855 70 239 2.0 3.0 0.00 0.00 0.00 30 1006.0
20260503230352 70 301 4.0 7.0 0.00 0.00 0.00 28 1005.9
20260503225850 70 251 3.0 6.0 0.00 0.00 0.00 29 1006.2
20260503225346 70 265 3.0 5.0 0.00 0.00 0.00 29 1006.3
20260503224842 69 253 5.0 7.0 0.00 0.00 0.00 29 1006.2
20260503224339 70 308 7.0 10.0 0.00 0.00 0.00 29 1006.2
20260503223837 70 350 4.0 6.0 0.00 0.00 0.00 29 1006.4
20260503223335 69 281 3.0 5.0 0.00 0.00 0.00 28 1006.5
20260503222830 70 324 7.0 9.0 0.00 0.00 0.00 28 1006.2
20260503222329 70 254 0.0 1.0 0.00 0.00 0.00 29 1006.3
20260503221826 70 292 2.0 7.0 0.00 0.00 0.00 30 1006.4
20260503221325 70 254 4.0 5.0 0.00 0.00 0.00 28 1006.5
20260503220821 69 325 5.0 7.0 0.00 0.00 0.00 28 1006.3
20260503220318 70 263 3.0 3.0 0.00 0.00 0.00 29 1006.4
20260503215814 70 297 2.0 7.0 0.00 0.00 0.00 29 1006.6
20260503215312 69 290 7.0 8.0 0.00 0.00 0.00 28 1006.7
20260503214810 70 301 5.0 6.0 0.00 0.00 0.00 28 1006.6
20260503214306 69 323 4.0 7.0 0.00 0.00 0.00 28 1006.7
20260503213804 69 282 10.0 13.0 0.00 0.00 0.00 27 1006.6
20260503213301 69 292 0.0 0.0 0.00 0.00 0.00 28 1006.8
20260503212758 69 299 5.0 7.0 0.00 0.00 0.00 29 1007.0
20260503212256 69 294 6.0 7.0 0.00 0.00 0.00 29 1007.0
20260503211753 70 270 9.0 10.0 0.00 0.00 0.00 28 1006.9
20260503211249 69 255 2.0 5.0 0.00 0.00 0.00 31 1006.9
20260503210744 68 347 2.0 2.0 0.00 0.00 0.00 31 1006.7
20260503210242 69 250 3.0 3.0 0.00 0.00 0.00 30 1007.1
20260503205742 69 350 7.0 9.0 0.00 0.00 0.00 29 1006.9
20260503205239 70 332 5.0 7.0 0.00 0.00 0.00 29 1007.3
20260503204735 69 236 0.0 0.0 0.00 0.00 0.00 32 1007.1
20260503204233 69 292 0.0 1.0 0.00 0.00 0.00 31 1007.2
20260503203730 70 354 5.0 7.0 0.00 0.00 0.00 28 1007.2
20260503203228 69 232 1.0 2.0 0.00 0.00 0.00 29 1007.2
20260503202725 70 316 6.0 7.0 0.00 0.00 0.00 29 1007.1
20260503202223 68 300 0.0 0.0 0.00 0.00 0.00 30 1007.2
20260503201720 68 277 5.0 6.0 0.00 0.00 0.00 34 1007.2
20260503201218 69 256 3.0 3.0 0.00 0.00 0.00 33 1007.3
20260503200714 69 315 5.0 7.0 0.00 0.00 0.00 36 1007.2
20260503200210 69 275 9.0 11.0 0.00 0.00 0.00 33 1007.6
20260503195707 69 210 0.0 1.0 0.00 0.00 0.00 33 1007.5
20260503195204 68 271 5.0 7.0 0.00 0.00 0.00 34 1007.4
20260503194701 68 329 5.0 7.0 0.00 0.00 0.00 34 1007.8
20260503194156 67 325 3.0 5.0 0.00 0.00 0.00 34 1007.9
20260503193653 69 256 4.0 6.0 0.00 0.00 0.00 34 1007.8
20260503193149 68 216 6.0 8.0 0.00 0.00 0.00 32 1007.7
20260503192645 67 315 11.0 15.0 0.00 0.00 0.00 32 1008.0
20260503192141 68 338 9.0 10.0 0.00 0.00 0.00 33 1008.0
20260503191638 67 27 4.0 6.0 0.00 0.00 0.00 34 1007.9
20260503191135 68 0 3.0 5.0 0.00 0.00 0.00 33 1008.0
20260503190632 66 289 8.0 10.0 0.00 0.00 0.00 35 1007.8
20260503190129 67 256 10.0 14.0 0.00 0.00 0.00 34 1008.1
20260503185625 67 323 0.0 0.0 0.00 0.00 0.00 35 1007.9
20260503185120 68 15 5.0 8.0 0.00 0.00 0.00 33 1008.2
20260503184616 67 218 5.0 7.0 0.00 0.00 0.00 33 1008.0
20260503184113 67 346 6.0 9.0 0.00 0.00 0.00 32 1008.1
20260503183609 67 327 7.0 9.0 0.00 0.00 0.00 31 1008.1
20260503183107 67 301 15.0 22.0 0.00 0.00 0.00 34 1008.1
20260503182605 66 296 5.0 6.0 0.00 0.00 0.00 38 1008.1
20260503182102 67 335 7.0 13.0 0.00 0.00 0.00 36 1008.0
20260503181559 66 276 6.0 9.0 0.00 0.00 0.00 37 1008.1
20260503181056 66 318 6.0 7.0 0.00 0.00 0.00 35 1008.3
20260503180553 67 320 11.0 15.0 0.00 0.00 0.00 38 1008.5
20260503180050 66 335 7.0 8.0 0.00 0.00 0.00 41 1008.2
20260503175547 66 245 5.0 8.0 0.00 0.00 0.00 40 1008.5
20260503175045 66 347 7.0 8.0 0.00 0.00 0.00 37 1008.5
20260503174542 66 10 3.0 5.0 0.00 0.00 0.00 41 1008.5
20260503174038 66 302 6.0 10.0 0.00 0.00 0.00 42 1008.6
20260503173533 65 266 9.0 11.0 0.00 0.00 0.00 42 1008.3
20260503173029 66 332 10.0 13.0 0.00 0.00 0.00 42 1008.5
20260503172527 66 338 13.0 15.0 0.00 0.00 0.00 42 1008.6
20260503172024 66 268 5.0 7.0 0.00 0.00 0.00 43 1008.3
20260503171521 66 285 7.0 10.0 0.00 0.00 0.00 43 1008.3
20260503171018 66 338 10.0 13.0 0.00 0.00 0.00 44 1008.5
20260503170514 65 271 7.0 10.0 0.00 0.00 0.00 45 1008.5
20260503150907 62 276 11.0 15.0 0.00 0.00 0.00 51 1008.2
20260503150403 62 334 3.0 6.0 0.00 0.00 0.00 51 1008.3
20260503131256 56 290 7.0 9.0 0.00 0.00 0.00 59 1007.3
20260503130754 55 275 5.0 8.0 0.00 0.00 0.00 59 1007.3
20260503130251 55 296 5.0 7.0 0.00 0.00 0.00 60 1007.1
20260503120217 52 257 0.0 0.0 0.00 0.00 0.00 61 1006.5
20260503110644 51 196 0.0 0.0 0.00 0.00 0.00 61 1005.7
20260503110142 51 191 0.0 0.0 0.00 0.00 0.00 60 1005.8
20260503100109 54 189 2.0 2.0 0.00 0.00 0.00 54 1006.0
20260503081458 57 179 1.0 2.0 0.00 0.00 0.00 53 1006.5
20260503080955 57 172 0.0 0.0 0.00 0.00 0.00 53 1006.6
20260503080451 57 194 0.0 0.0 0.00 0.00 0.00 54 1006.7
20260503072927 58 149 1.0 2.0 0.00 0.00 0.00 55 1006.7
20260503072425 58 180 0.0 0.0 0.00 0.00 0.00 55 1007.0
20260503071922 58 207 0.0 0.0 0.00 0.00 0.00 55 1007.0
20260503071419 58 195 1.0 1.0 0.00 0.00 0.00 55 1007.1
20260503070915 59 192 0.0 0.0 0.00 0.00 0.00 54 1007.2
20260503070412 59 225 0.0 0.0 0.00 0.00 0.00 54 1007.2